Regional Weather Roundup
Issued by NWS

Home | Current Version | Previous Version | Graphics & Text | Print | Product List | Glossary On
Versions: 1 2 3 4 5 6 7 8 9 10 11 12 13 14 15 16 17 18 19 20 21 22 23 24 25 26 27 28 29 30 31 32 33 34 35 36 37 38 39 40 41 42 43 44 45 46 47 48 49 50
000
ASUS43 KFSD 220602
RWRSD

WEATHER ROUNDUP FOR SOUTH DAKOTA
NATIONAL WEATHER SERVICE SIOUX FALLS SD
100 AM CDT WED OCT 22 2014

NOTE: "FAIR" INDICATES FEW OR NO CLOUDS BELOW 12,000 FEET WITH NO
SIGNIFICANT WEATHER AND/OR OBSTRUCTIONS TO VISIBILITY.


SDZ001>005-009-010-012>017-220700-
NORTHWEST AND NORTH CENTRAL SOUTH DAKOTA

CITY           SKY/WX    TMP DP  RH WIND       PRES   REMARKS
FAITH            N/A     59  50  72 S14       29.71R
MOBRIDGE       PTCLDY    66  48  52 S18G31    29.69F
$$

SDZ012>016-024>037-041>051-057-063-072>074-220700-
SOUTHWEST AND SOUTH CENTRAL SOUTH DAKOTA

CITY           SKY/WX    TMP DP  RH WIND       PRES   REMARKS
RAPID CTY ARPT PTCLDY    62  42  47 SW5       29.77S
PIERRE         PTCLDY    62  50  64 SE13      29.77S
CUSTER         PTCLDY    52  37  56 W5        29.91F
PHILIP         CLOUDY    70  50  49 SW18G26   29.74S
PINE RIDGE     MOCLDY    62  49  62 S8        29.83S
SPEARFISH      MOCLDY    64  37  36 W8        29.85R
WINNER         FAIR      66  53  63 S23G30    29.82F
$$

SDZ004>011-016>023-039-040-220700-
NORTHEAST SOUTH DAKOTA

CITY           SKY/WX    TMP DP  RH WIND       PRES   REMARKS
ABERDEEN       CLEAR     63  42  46 S22G37    29.84F
WATERTOWN      PTCLDY    55  41  59 S24G32    29.94F
SISSETON         N/A     52  42  69 S13       29.92F
$$

SDZ017-020-022-023-036>040-048>070-220700-
SOUTHEAST SOUTH DAKOTA

CITY           SKY/WX    TMP DP  RH WIND       PRES   REMARKS
SIOUX FALLS    CLEAR     55  43  63 SE16G25   30.01F
HURON          CLEAR     60  40  47 S15G28    29.88F
CHAMBERLAIN    CLEAR     62  46  55 SE14G21   29.84F
MITCHELL       CLEAR     60  40  47 SE20      29.92S
YANKTON        CLEAR     59  37  44 SE17G24   29.99S
$$

ABBREVIATIONS USED IN REMARKS
   TC - TEMPERATURE IN CELSIUS
  WCI - WIND CHILL INDEX
   HX - HEAT INDEX
  VSB - VISIBILITY




USA.gov is the U.S. government's official web portal to all federal, state and local government web resources and services.